| time (UTC) | temp F | wind direction | speed MPH | gust MPH | rain 1hr in | rain 24hr in | rain mn in | humidity % | barometer mb |
| 20260506062036 | 75 | 138 | 4.0 | 10.0 | 0.00 | 0.00 | 0.00 | 90 | 1009.1 |
| 20260506061551 | 75 | 115 | 4.0 | 8.0 | 0.00 | 0.00 | 0.00 | 89 | 1009.3 |
| 20260506061039 | 75 | 158 | 3.0 | 8.0 | 0.00 | 0.00 | 0.00 | 89 | 1009.3 |
| 20260506060539 | 75 | 134 | 4.0 | 11.0 | 0.00 | 0.00 | 0.00 | 89 | 1009.3 |
| 20260506051036 | 75 | 147 | 5.0 | 12.0 | 0.00 | 0.00 | 0.00 | 88 | 1009.5 |
| 20260506050536 | 75 | 169 | 5.0 | 12.0 | 0.00 | 0.00 | 0.00 | 88 | 1009.5 |
| 20260506045036 | 76 | 171 | 5.0 | 14.0 | 0.00 | 0.00 | 0.00 | 87 | 1009.2 |
| 20260506044604 | 76 | 175 | 6.0 | 14.0 | 0.00 | 0.00 | 0.00 | 87 | 1009.1 |
| 20260506044037 | 76 | 175 | 4.0 | 11.0 | 0.00 | 0.00 | 0.00 | 87 | 1009.0 |
| 20260506043539 | 76 | 120 | 4.0 | 13.0 | 0.00 | 0.00 | 0.00 | 87 | 1009.0 |
| 20260506043055 | 76 | 138 | 7.0 | 13.0 | 0.00 | 0.00 | 0.00 | 87 | 1009.0 |
| 20260506042539 | 76 | 171 | 7.0 | 14.0 | 0.00 | 0.00 | 0.00 | 87 | 1008.9 |
| 20260506042039 | 76 | 180 | 5.0 | 16.0 | 0.00 | 0.00 | 0.00 | 86 | 1009.0 |
| 20260506041553 | 76 | 190 | 5.0 | 16.0 | 0.00 | 0.00 | 0.00 | 86 | 1008.9 |
| 20260506041036 | 76 | 185 | 5.0 | 12.0 | 0.00 | 0.00 | 0.00 | 86 | 1008.9 |
| 20260506040535 | 77 | 170 | 5.0 | 14.0 | 0.00 | 0.00 | 0.00 | 86 | 1008.9 |
| 20260506040052 | 77 | 153 | 6.0 | 14.0 | 0.00 | 0.00 | 0.00 | 86 | 1008.8 |
| 20260506035536 | 77 | 157 | 7.0 | 14.0 | 0.00 | 0.00 | 0.00 | 86 | 1008.8 |
| 20260506035036 | 77 | 153 | 5.0 | 10.0 | 0.00 | 0.00 | 0.00 | 86 | 1008.8 |
| 20260506034557 | 77 | 169 | 3.0 | 12.0 | 0.00 | 0.00 | 0.00 | 86 | 1008.7 |
| 20260506034036 | 77 | 150 | 5.0 | 13.0 | 0.00 | 0.00 | 0.00 | 85 | 1008.6 |
| 20260506033536 | 77 | 178 | 6.0 | 13.0 | 0.00 | 0.00 | 0.00 | 85 | 1008.5 |
| 20260506033047 | 77 | 178 | 6.0 | 12.0 | 0.00 | 0.00 | 0.00 | 85 | 1008.5 |
| 20260506032536 | 77 | 186 | 5.0 | 10.0 | 0.00 | 0.00 | 0.00 | 85 | 1008.5 |
| 20260506032039 | 77 | 148 | 5.0 | 10.0 | 0.00 | 0.00 | 0.00 | 85 | 1008.4 |
| 20260506031552 | 77 | 165 | 4.0 | 15.0 | 0.00 | 0.00 | 0.00 | 85 | 1008.3 |
| 20260506031039 | 77 | 127 | 5.0 | 15.0 | 0.00 | 0.00 | 0.00 | 85 | 1008.3 |
| 20260506030537 | 77 | 150 | 4.0 | 10.0 | 0.00 | 0.00 | 0.00 | 86 | 1008.2 |
| 20260506030048 | 77 | 190 | 4.0 | 9.0 | 0.00 | 0.00 | 0.00 | 85 | 1008.2 |
| 20260506025535 | 77 | 213 | 4.0 | 9.0 | 0.00 | 0.00 | 0.00 | 85 | 1008.3 |
| 20260506025036 | 77 | 187 | 4.0 | 9.0 | 0.00 | 0.00 | 0.00 | 85 | 1008.2 |
| 20260506024549 | 77 | 170 | 3.0 | 7.0 | 0.00 | 0.00 | 0.00 | 85 | 1008.0 |
| 20260506024036 | 77 | 170 | 3.0 | 7.0 | 0.00 | 0.00 | 0.00 | 85 | 1007.9 |
| 20260506023537 | 77 | 155 | 4.0 | 8.0 | 0.00 | 0.00 | 0.00 | 85 | 1007.9 |
| 20260506023048 | 77 | 198 | 3.0 | 8.0 | 0.00 | 0.00 | 0.00 | 84 | 1007.8 |
| 20260506022536 | 77 | 171 | 3.0 | 8.0 | 0.00 | 0.00 | 0.00 | 84 | 1007.8 |
| 20260506022036 | 77 | 178 | 3.0 | 8.0 | 0.00 | 0.00 | 0.00 | 84 | 1007.8 |
| 20260506021554 | 77 | 164 | 3.0 | 8.0 | 0.00 | 0.00 | 0.00 | 84 | 1007.7 |
| 20260506021036 | 77 | 173 | 3.0 | 8.0 | 0.00 | 0.00 | 0.00 | 84 | 1007.8 |
| 20260506020539 | 77 | 0 | 2.0 | 4.0 | 0.00 | 0.00 | 0.00 | 83 | 1007.8 |
| 20260506020047 | 78 | 175 | 1.0 | 5.0 | 0.00 | 0.00 | 0.00 | 83 | 1007.8 |
| 20260506015539 | 78 | 0 | 1.0 | 5.0 | 0.00 | 0.00 | 0.00 | 83 | 1007.7 |
| 20260506015036 | 78 | 177 | 2.0 | 5.0 | 0.00 | 0.00 | 0.00 | 83 | 1007.6 |
| 20260506014547 | 78 | 172 | 1.0 | 7.0 | 0.00 | 0.00 | 0.00 | 82 | 1007.6 |
| 20260506014036 | 78 | 196 | 0.0 | 8.0 | 0.00 | 0.00 | 0.00 | 82 | 1007.5 |
| 20260506013536 | 78 | 215 | 2.0 | 8.0 | 0.00 | 0.00 | 0.00 | 82 | 1007.5 |
| 20260506013048 | 79 | 191 | 1.0 | 8.0 | 0.00 | 0.00 | 0.00 | 81 | 1007.4 |
| 20260506012539 | 79 | 180 | 3.0 | 10.0 | 0.00 | 0.00 | 0.00 | 81 | 1007.2 |
| 20260506012038 | 79 | 148 | 4.0 | 10.0 | 0.00 | 0.00 | 0.00 | 81 | 1007.0 |
| 20260506011555 | 79 | 153 | 4.0 | 8.0 | 0.00 | 0.00 | 0.00 | 81 | 1006.9 |
| 20260506011038 | 79 | 159 | 3.0 | 10.0 | 0.00 | 0.00 | 0.00 | 80 | 1006.8 |
| 20260506010536 | 79 | 175 | 3.0 | 12.0 | 0.00 | 0.00 | 0.00 | 80 | 1006.8 |
| 20260506010048 | 80 | 161 | 6.0 | 12.0 | 0.00 | 0.00 | 0.00 | 80 | 1006.8 |
| 20260506005539 | 80 | 178 | 5.0 | 14.0 | 0.00 | 0.00 | 0.00 | 80 | 1006.8 |
| 20260506005037 | 80 | 192 | 5.0 | 14.0 | 0.00 | 0.00 | 0.00 | 80 | 1006.7 |
| 20260506004547 | 80 | 160 | 3.0 | 9.0 | 0.00 | 0.00 | 0.00 | 79 | 1006.7 |
| 20260506004036 | 80 | 174 | 4.0 | 15.0 | 0.00 | 0.00 | 0.00 | 79 | 1006.7 |
| 20260506003538 | 80 | 169 | 5.0 | 15.0 | 0.00 | 0.00 | 0.00 | 79 | 1006.6 |
| 20260506003052 | 81 | 203 | 5.0 | 13.0 | 0.00 | 0.00 | 0.00 | 78 | 1006.6 |
| 20260506002536 | 81 | 205 | 5.0 | 13.0 | 0.00 | 0.00 | 0.00 | 78 | 1006.6 |
| 20260506002036 | 81 | 178 | 5.0 | 11.0 | 0.00 | 0.00 | 0.00 | 78 | 1006.6 |
| 20260506001555 | 81 | 188 | 4.0 | 10.0 | 0.00 | 0.00 | 0.00 | 79 | 1006.5 |
| 20260506001038 | 81 | 167 | 2.0 | 10.0 | 0.00 | 0.00 | 0.00 | 78 | 1006.4 |
| 20260506000540 | 81 | 188 | 5.0 | 10.0 | 0.00 | 0.00 | 0.00 | 78 | 1006.2 |
| 20260506000049 | 81 | 167 | 2.0 | 10.0 | 0.00 | 0.00 | 0.00 | 77 | 1006.2 |
| 20260505235539 | 81 | 187 | 4.0 | 14.0 | 0.00 | 0.00 | 0.00 | 77 | 1006.2 |
| 20260505235036 | 82 | 188 | 3.0 | 17.0 | 0.00 | 0.00 | 0.00 | 77 | 1006.1 |
| 20260505234607 | 82 | 171 | 4.0 | 20.0 | 0.00 | 0.00 | 0.00 | 76 | 1006.2 |
| 20260505234037 | 82 | 188 | 5.0 | 20.0 | 0.00 | 0.00 | 0.00 | 76 | 1006.2 |
| 20260505233536 | 82 | 178 | 6.0 | 14.0 | 0.00 | 0.00 | 0.00 | 76 | 1006.3 |
| 20260505233049 | 82 | 169 | 6.0 | 15.0 | 0.00 | 0.00 | 0.00 | 76 | 1006.3 |
| 20260505232538 | 82 | 157 | 7.0 | 15.0 | 0.00 | 0.00 | 0.00 | 76 | 1006.3 |
| 20260505232036 | 82 | 197 | 8.0 | 14.0 | 0.00 | 0.00 | 0.00 | 76 | 1006.2 |
| 20260505231549 | 82 | 170 | 5.0 | 16.0 | 0.00 | 0.00 | 0.00 | 76 | 1006.1 |
| 20260505231040 | 83 | 169 | 5.0 | 17.0 | 0.00 | 0.00 | 0.00 | 76 | 1006.1 |
| 20260505230539 | 83 | 143 | 7.0 | 18.0 | 0.00 | 0.00 | 0.00 | 75 | 1006.0 |
| 20260505230051 | 83 | 184 | 8.0 | 18.0 | 0.00 | 0.00 | 0.00 | 75 | 1006.0 |
| 20260505225540 | 83 | 192 | 7.0 | 17.0 | 0.00 | 0.00 | 0.00 | 75 | 1006.1 |
| 20260505225036 | 83 | 158 | 7.0 | 18.0 | 0.00 | 0.00 | 0.00 | 74 | 1006.1 |
| 20260505224555 | 84 | 186 | 8.0 | 21.0 | 0.00 | 0.00 | 0.00 | 74 | 1006.3 |
| 20260505224039 | 84 | 173 | 8.0 | 21.0 | 0.00 | 0.00 | 0.00 | 74 | 1006.3 |
| 20260505223537 | 84 | 167 | 6.0 | 14.0 | 0.00 | 0.00 | 0.00 | 74 | 1006.3 |
| 20260505223106 | 84 | 153 | 6.0 | 14.0 | 0.00 | 0.00 | 0.00 | 74 | 1006.3 |
| 20260505222536 | 84 | 171 | 5.0 | 14.0 | 0.00 | 0.00 | 0.00 | 74 | 1006.3 |
| 20260505222036 | 84 | 156 | 5.0 | 14.0 | 0.00 | 0.00 | 0.00 | 75 | 1006.3 |
| 20260505221550 | 84 | 200 | 5.0 | 14.0 | 0.00 | 0.00 | 0.00 | 74 | 1006.4 |
| 20260505221039 | 84 | 180 | 6.0 | 15.0 | 0.00 | 0.00 | 0.00 | 74 | 1006.5 |
| 20260505220539 | 84 | 188 | 6.0 | 15.0 | 0.00 | 0.00 | 0.00 | 74 | 1006.5 |
| 20260505220048 | 84 | 163 | 5.0 | 18.0 | 0.00 | 0.00 | 0.00 | 75 | 1006.5 |
| 20260505215537 | 84 | 163 | 6.0 | 17.0 | 0.00 | 0.00 | 0.00 | 74 | 1006.5 |
| 20260505215039 | 84 | 193 | 9.0 | 17.0 | 0.00 | 0.00 | 0.00 | 74 | 1006.6 |
| 20260505214559 | 83 | 155 | 4.0 | 15.0 | 0.00 | 0.00 | 0.00 | 75 | 1006.7 |
| 20260505214037 | 83 | 155 | 7.0 | 17.0 | 0.00 | 0.00 | 0.00 | 75 | 1006.7 |
| 20260505213537 | 83 | 194 | 8.0 | 17.0 | 0.00 | 0.00 | 0.00 | 74 | 1006.8 |
| 20260505213054 | 84 | 224 | 5.0 | 16.0 | 0.00 | 0.00 | 0.00 | 74 | 1006.8 |
| 20260505212536 | 84 | 173 | 5.0 | 13.0 | 0.00 | 0.00 | 0.00 | 74 | 1006.8 |
| 20260505212037 | 84 | 213 | 6.0 | 13.0 | 0.00 | 0.00 | 0.00 | 74 | 1006.8 |
| 20260505211556 | 84 | 107 | 4.0 | 16.0 | 0.00 | 0.00 | 0.00 | 75 | 1006.7 |
| 20260505211036 | 84 | 190 | 8.0 | 16.0 | 0.00 | 0.00 | 0.00 | 74 | 1006.8 |
| 20260505210536 | 84 | 208 | 4.0 | 15.0 | 0.00 | 0.00 | 0.00 | 74 | 1007.0 |
| 20260505210048 | 84 | 162 | 4.0 | 17.0 | 0.00 | 0.00 | 0.00 | 74 | 1007.0 |
| 20260505205536 | 84 | 144 | 7.0 | 17.0 | 0.00 | 0.00 | 0.00 | 73 | 1007.2 |
| 20260505205036 | 84 | 169 | 7.0 | 13.0 | 0.00 | 0.00 | 0.00 | 74 | 1007.2 |
| 20260505204552 | 84 | 179 | 3.0 | 9.0 | 0.00 | 0.00 | 0.00 | 74 | 1007.3 |
| 20260505204036 | 84 | 192 | 5.0 | 15.0 | 0.00 | 0.00 | 0.00 | 74 | 1007.3 |
| 20260505203536 | 84 | 252 | 6.0 | 16.0 | 0.00 | 0.00 | 0.00 | 74 | 1007.4 |
| 20260505203100 | 84 | 190 | 6.0 | 16.0 | 0.00 | 0.00 | 0.00 | 73 | 1007.5 |
| 20260505202536 | 85 | 175 | 5.0 | 14.0 | 0.00 | 0.00 | 0.00 | 74 | 1007.5 |
| 20260505202036 | 85 | 184 | 4.0 | 14.0 | 0.00 | 0.00 | 0.00 | 74 | 1007.6 |
| 20260505201545 | 85 | 184 | 5.0 | 13.0 | 0.00 | 0.00 | 0.00 | 74 | 1007.6 |
| 20260505201037 | 84 | 180 | 4.0 | 14.0 | 0.00 | 0.00 | 0.00 | 74 | 1007.7 |
| 20260505200537 | 84 | 180 | 5.0 | 14.0 | 0.00 | 0.00 | 0.00 | 74 | 1007.7 |
| 20260505200048 | 84 | 194 | 4.0 | 14.0 | 0.00 | 0.00 | 0.00 | 75 | 1007.8 |
| 20260505195537 | 83 | 180 | 4.0 | 13.0 | 0.00 | 0.00 | 0.00 | 74 | 1007.8 |
| 20260505195035 | 83 | 207 | 4.0 | 13.0 | 0.00 | 0.00 | 0.00 | 74 | 1007.8 |
| 20260505194548 | 83 | 195 | 5.0 | 16.0 | 0.00 | 0.00 | 0.00 | 74 | 1008.0 |
| 20260505194037 | 83 | 180 | 6.0 | 16.0 | 0.00 | 0.00 | 0.00 | 75 | 1007.9 |
| 20260505193536 | 83 | 205 | 4.0 | 12.0 | 0.00 | 0.00 | 0.00 | 75 | 1008.1 |
| 20260505193046 | 83 | 158 | 4.0 | 18.0 | 0.00 | 0.00 | 0.00 | 74 | 1008.1 |
| 20260505192538 | 83 | 168 | 4.0 | 18.0 | 0.00 | 0.00 | 0.00 | 77 | 1008.1 |
| 20260505192036 | 83 | 202 | 5.0 | 15.0 | 0.00 | 0.00 | 0.00 | 75 | 1008.2 |
| 20260505191550 | 83 | 190 | 4.0 | 16.0 | 0.00 | 0.00 | 0.00 | 75 | 1008.2 |
| 20260505191035 | 83 | 163 | 6.0 | 16.0 | 0.00 | 0.00 | 0.00 | 77 | 1008.1 |
| 20260505190536 | 82 | 169 | 5.0 | 16.0 | 0.00 | 0.00 | 0.00 | 78 | 1008.2 |
| 20260505190045 | 82 | 263 | 7.0 | 13.0 | 0.00 | 0.00 | 0.00 | 77 | 1008.3 |
| 20260505185537 | 82 | 206 | 3.0 | 12.0 | 0.00 | 0.00 | 0.00 | 77 | 1008.4 |
| 20260505185037 | 82 | 188 | 4.0 | 16.0 | 0.00 | 0.00 | 0.00 | 79 | 1008.5 |
| 20260505184551 | 82 | 188 | 5.0 | 16.0 | 0.00 | 0.00 | 0.00 | 78 | 1008.5 |
| 20260505184036 | 82 | 229 | 4.0 | 11.0 | 0.00 | 0.00 | 0.00 | 77 | 1008.6 |
| 20260505183537 | 82 | 166 | 3.0 | 8.0 | 0.00 | 0.00 | 0.00 | 79 | 1008.7 |
| 20260505183052 | 81 | 143 | 4.0 | 8.0 | 0.00 | 0.00 | 0.00 | 79 | 1008.7 |
| 20260505182538 | 81 | 166 | 3.0 | 9.0 | 0.00 | 0.00 | 0.00 | 79 | 1008.8 |
| 20260505182036 | 81 | 262 | 2.0 | 12.0 | 0.00 | 0.00 | 0.00 | 78 | 1008.8 |
| 20260505181547 | 81 | 205 | 5.0 | 12.0 | 0.00 | 0.00 | 0.00 | 79 | 1008.9 |
| 20260505181037 | 81 | 206 | 3.0 | 15.0 | 0.00 | 0.00 | 0.00 | 81 | 1008.9 |
| 20260505180541 | 80 | 211 | 4.0 | 15.0 | 0.00 | 0.00 | 0.00 | 79 | 1008.8 |
| 20260505180056 | 80 | 218 | 3.0 | 13.0 | 0.00 | 0.00 | 0.00 | 80 | 1008.8 |
| 20260505175540 | 80 | 221 | 5.0 | 13.0 | 0.00 | 0.00 | 0.00 | 81 | 1008.8 |
| 20260505175039 | 80 | 218 | 3.0 | 13.0 | 0.00 | 0.00 | 0.00 | 80 | 1008.9 |
| 20260505174548 | 80 | 172 | 3.0 | 15.0 | 0.00 | 0.00 | 0.00 | 81 | 1009.0 |
| 20260505174037 | 80 | 178 | 4.0 | 15.0 | 0.00 | 0.00 | 0.00 | 81 | 1009.0 |
| 20260505173537 | 79 | 209 | 5.0 | 15.0 | 0.00 | 0.00 | 0.00 | 81 | 1009.0 |
| 20260505173049 | 79 | 209 | 4.0 | 14.0 | 0.00 | 0.00 | 0.00 | 81 | 1009.0 |
| 20260505172536 | 79 | 180 | 6.0 | 13.0 | 0.00 | 0.00 | 0.00 | 81 | 1009.0 |
| 20260505172036 | 79 | 169 | 4.0 | 12.0 | 0.00 | 0.00 | 0.00 | 82 | 1009.0 |
| 20260505171556 | 79 | 186 | 5.0 | 11.0 | 0.00 | 0.00 | 0.00 | 82 | 1009.1 |
| 20260505171039 | 79 | 216 | 4.0 | 10.0 | 0.00 | 0.00 | 0.00 | 83 | 1009.2 |
| 20260505170537 | 78 | 211 | 3.0 | 10.0 | 0.00 | 0.00 | 0.00 | 83 | 1009.2 |
| 20260505170051 | 78 | 199 | 4.0 | 11.0 | 0.00 | 0.00 | 0.00 | 83 | 1009.3 |
| 20260505165541 | 78 | 177 | 3.0 | 11.0 | 0.00 | 0.00 | 0.00 | 83 | 1009.3 |
| 20260505165039 | 78 | 196 | 3.0 | 11.0 | 0.00 | 0.00 | 0.00 | 83 | 1009.3 |
| 20260505164549 | 78 | 192 | 3.0 | 11.0 | 0.00 | 0.00 | 0.00 | 83 | 1009.3 |
| 20260505164037 | 78 | 179 | 4.0 | 8.0 | 0.00 | 0.00 | 0.00 | 84 | 1009.3 |
| 20260505163537 | 77 | 167 | 3.0 | 15.0 | 0.00 | 0.00 | 0.00 | 84 | 1009.2 |
| 20260505163049 | 77 | 207 | 6.0 | 15.0 | 0.00 | 0.00 | 0.00 | 84 | 1009.2 |
| 20260505162536 | 77 | 206 | 4.0 | 13.0 | 0.00 | 0.00 | 0.00 | 84 | 1009.3 |
| 20260505162036 | 77 | 177 | 4.0 | 13.0 | 0.00 | 0.00 | 0.00 | 84 | 1009.3 |
| 20260505161547 | 77 | 174 | 5.0 | 12.0 | 0.00 | 0.00 | 0.00 | 84 | 1009.3 |
| 20260505161038 | 76 | 189 | 4.0 | 11.0 | 0.00 | 0.00 | 0.00 | 85 | 1009.4 |
| 20260505160537 | 76 | 153 | 4.0 | 12.0 | 0.00 | 0.00 | 0.00 | 85 | 1009.4 |
| 20260505153052 | 75 | 209 | 5.0 | 15.0 | 0.00 | 0.00 | 0.00 | 86 | 1009.4 |
| 20260505152537 | 75 | 163 | 5.0 | 15.0 | 0.00 | 0.00 | 0.00 | 86 | 1009.4 |
| 20260505152041 | 75 | 222 | 4.0 | 12.0 | 0.00 | 0.00 | 0.00 | 86 | 1009.3 |
| 20260505151549 | 74 | 175 | 4.0 | 12.0 | 0.00 | 0.00 | 0.00 | 86 | 1009.3 |
| 20260505151036 | 74 | 175 | 3.0 | 11.0 | 0.00 | 0.00 | 0.00 | 87 | 1009.3 |
| 20260505150536 | 74 | 161 | 5.0 | 11.0 | 0.00 | 0.00 | 0.00 | 87 | 1009.3 |
| 20260505140536 | 73 | 173 | 2.0 | 10.0 | 0.00 | 0.00 | 0.00 | 89 | 1009.2 |
| 20260505130103 | 71 | 240 | 3.0 | 10.0 | 0.00 | 0.00 | 0.00 | 89 | 1008.8 |
| 20260505125037 | 71 | 144 | 4.0 | 11.0 | 0.00 | 0.00 | 0.00 | 89 | 1008.7 |
| 20260505124602 | 71 | 211 | 4.0 | 11.0 | 0.00 | 0.00 | 0.00 | 89 | 1008.8 |
| 20260505124036 | 71 | 210 | 3.0 | 8.0 | 0.00 | 0.00 | 0.00 | 89 | 1009.0 |
| 20260505123536 | 71 | 208 | 3.0 | 10.0 | 0.00 | 0.00 | 0.00 | 89 | 1008.9 |
| 20260505123058 | 71 | 146 | 4.0 | 10.0 | 0.00 | 0.00 | 0.00 | 89 | 1008.9 |
| 20260505122535 | 71 | 227 | 3.0 | 9.0 | 0.00 | 0.00 | 0.00 | 89 | 1008.8 |
| 20260505122036 | 71 | 155 | 3.0 | 9.0 | 0.00 | 0.00 | 0.00 | 89 | 1008.8 |
| 20260505121552 | 71 | 200 | 3.0 | 11.0 | 0.00 | 0.00 | 0.00 | 89 | 1008.8 |
| 20260505121037 | 71 | 167 | 2.0 | 11.0 | 0.00 | 0.00 | 0.00 | 89 | 1008.7 |
| 20260505120537 | 71 | 179 | 4.0 | 11.0 | 0.00 | 0.00 | 0.00 | 89 | 1008.6 |
| 20260505120105 | 71 | 200 | 2.0 | 8.0 | 0.00 | 0.00 | 0.00 | 89 | 1008.5 |
| 20260505115536 | 71 | 171 | 3.0 | 9.0 | 0.00 | 0.00 | 0.00 | 89 | 1008.3 |
| 20260505115039 | 71 | 171 | 5.0 | 10.0 | 0.00 | 0.00 | 0.00 | 89 | 1008.4 |
| 20260505114556 | 71 | 167 | 4.0 | 10.0 | 0.00 | 0.00 | 0.00 | 89 | 1008.4 |
| 20260505114039 | 71 | 185 | 3.0 | 12.0 | 0.00 | 0.00 | 0.00 | 89 | 1008.2 |
| 20260505113540 | 71 | 191 | 4.0 | 12.0 | 0.00 | 0.00 | 0.00 | 89 | 1008.2 |
| 20260505113102 | 71 | 202 | 1.0 | 10.0 | 0.00 | 0.00 | 0.00 | 89 | 1008.2 |
| 20260505112539 | 71 | 175 | 2.0 | 10.0 | 0.00 | 0.00 | 0.00 | 89 | 1008.1 |
| 20260505112039 | 71 | 175 | 2.0 | 10.0 | 0.00 | 0.00 | 0.00 | 89 | 1008.3 |
| 20260505111554 | 71 | 186 | 3.0 | 11.0 | 0.00 | 0.00 | 0.00 | 89 | 1008.5 |
| 20260505111040 | 71 | 229 | 3.0 | 11.0 | 0.00 | 0.00 | 0.00 | 89 | 1008.5 |
| 20260505110536 | 71 | 191 | 3.0 | 8.0 | 0.00 | 0.00 | 0.00 | 89 | 1008.5 |
| 20260505102039 | 70 | 249 | 5.0 | 11.0 | 0.00 | 0.00 | 0.00 | 89 | 1008.2 |
| 20260505101555 | 70 | 174 | 4.0 | 15.0 | 0.00 | 0.00 | 0.00 | 89 | 1008.2 |
| 20260505101038 | 70 | 161 | 5.0 | 15.0 | 0.00 | 0.00 | 0.00 | 89 | 1008.3 |
| 20260505100538 | 70 | 180 | 4.0 | 12.0 | 0.00 | 0.00 | 0.00 | 89 | 1008.3 |
| 20260505100100 | 70 | 208 | 4.0 | 11.0 | 0.00 | 0.00 | 0.00 | 89 | 1008.2 |
| 20260505095537 | 70 | 225 | 3.0 | 10.0 | 0.00 | 0.00 | 0.00 | 89 | 1008.3 |
| 20260505095036 | 70 | 173 | 4.0 | 11.0 | 0.00 | 0.00 | 0.00 | 89 | 1008.3 |
| 20260505094601 | 70 | 200 | 3.0 | 11.0 | 0.00 | 0.00 | 0.00 | 89 | 1008.3 |
| 20260505094039 | 70 | 138 | 3.0 | 10.0 | 0.00 | 0.00 | 0.00 | 89 | 1008.5 |
| 20260505093539 | 70 | 174 | 3.0 | 11.0 | 0.00 | 0.00 | 0.00 | 89 | 1008.4 |
| 20260505093056 | 70 | 148 | 4.0 | 12.0 | 0.00 | 0.00 | 0.00 | 89 | 1008.3 |
| 20260505092540 | 69 | 165 | 3.0 | 12.0 | 0.00 | 0.00 | 0.00 | 89 | 1008.5 |
| 20260505092038 | 69 | 236 | 2.0 | 9.0 | 0.00 | 0.00 | 0.00 | 89 | 1008.5 |
| 20260505091551 | 69 | 165 | 2.0 | 9.0 | 0.00 | 0.00 | 0.00 | 89 | 1008.6 |
| 20260505091037 | 69 | 178 | 3.0 | 10.0 | 0.00 | 0.00 | 0.00 | 89 | 1008.6 |
| 20260505090539 | 69 | 175 | 4.0 | 10.0 | 0.00 | 0.00 | 0.00 | 88 | 1008.7 |
| 20260505090104 | 69 | 203 | 3.0 | 7.0 | 0.00 | 0.00 | 0.00 | 88 | 1008.8 |
| 20260505085538 | 69 | 198 | 3.0 | 12.0 | 0.00 | 0.00 | 0.00 | 88 | 1008.7 |
| 20260505085040 | 69 | 196 | 3.0 | 12.0 | 0.00 | 0.00 | 0.00 | 88 | 1008.8 |
| 20260505084558 | 69 | 200 | 3.0 | 8.0 | 0.00 | 0.00 | 0.00 | 88 | 1008.8 |
| 20260505084049 | 69 | 153 | 3.0 | 8.0 | 0.00 | 0.00 | 0.00 | 88 | 1009.0 |
| 20260505083540 | 69 | 189 | 3.0 | 8.0 | 0.00 | 0.00 | 0.00 | 88 | 1009.0 |
| 20260505083109 | 69 | 192 | 2.0 | 7.0 | 0.00 | 0.00 | 0.00 | 88 | 1009.1 |
| 20260505082539 | 69 | 178 | 3.0 | 11.0 | 0.00 | 0.00 | 0.00 | 88 | 1009.0 |
| 20260505082037 | 69 | 174 | 3.0 | 11.0 | 0.00 | 0.00 | 0.00 | 87 | 1009.1 |
| 20260505081553 | 69 | 168 | 2.0 | 9.0 | 0.00 | 0.00 | 0.00 | 87 | 1009.1 |
| 20260505081040 | 69 | 166 | 3.0 | 9.0 | 0.00 | 0.00 | 0.00 | 87 | 1009.2 |
| 20260505080540 | 69 | 196 | 3.0 | 8.0 | 0.00 | 0.00 | 0.00 | 87 | 1009.2 |
| 20260505080053 | 69 | 211 | 3.0 | 8.0 | 0.00 | 0.00 | 0.00 | 87 | 1009.3 |
| 20260505075541 | 69 | 196 | 2.0 | 9.0 | 0.00 | 0.00 | 0.00 | 87 | 1009.4 |
| 20260505075039 | 69 | 144 | 2.0 | 9.0 | 0.00 | 0.00 | 0.00 | 87 | 1009.4 |
| 20260505074553 | 69 | 169 | 3.0 | 9.0 | 0.00 | 0.00 | 0.00 | 87 | 1009.5 |
| 20260505074036 | 69 | 130 | 3.0 | 8.0 | 0.00 | 0.00 | 0.00 | 87 | 1009.6 |
| 20260505073538 | 69 | 161 | 2.0 | 8.0 | 0.00 | 0.00 | 0.00 | 87 | 1009.5 |
| 20260505073056 | 69 | 153 | 2.0 | 10.0 | 0.00 | 0.00 | 0.00 | 86 | 1009.4 |
| 20260505072536 | 69 | 183 | 2.0 | 10.0 | 0.00 | 0.00 | 0.00 | 86 | 1009.4 |
| 20260505072037 | 69 | 174 | 4.0 | 10.0 | 0.00 | 0.00 | 0.00 | 86 | 1009.5 |
| 20260505071552 | 69 | 175 | 2.0 | 11.0 | 0.00 | 0.00 | 0.00 | 86 | 1009.5 |
| 20260505071039 | 69 | 198 | 3.0 | 15.0 | 0.00 | 0.00 | 0.00 | 86 | 1009.7 |
| 20260505070537 | 70 | 150 | 4.0 | 15.0 | 0.00 | 0.00 | 0.00 | 85 | 1009.7 |
| 20260505070104 | 70 | 174 | 4.0 | 14.0 | 0.00 | 0.00 | 0.00 | 85 | 1009.8 |